Mount Carmel, IL

1:43 PM CDT on March 27, 2017 (GMT -0500)
Mount Carmel Municipal

Weather History for KAJG - September, 2012

Change the Weather History Date:

Tuesday, September 4, 2012

  Actual Average (KLWV) Record (KLWV)
Temperature  
Mean Temperature 80 °F -  
Max Temperature 91 °F 84 °F 99 °F (2007)
Min Temperature 69 °F 58 °F 48 °F (1997)
Cooling Degree Days 15    
Growing Degree Days 30 (Base 50)    
Moisture  
Dew Point 71 °F    
Average Humidity 78    
Maximum Humidity 100    
Minimum Humidity 46    
Precipitation  
Precipitation 0.00 in - - ()
Sea Level Pressure  
Sea Level Pressure 29.87 in    
Wind  
Wind Speed 1 mph (NNW)    
Max Wind Speed 8 mph    
Max Gust Speed -    
Visibility 7 miles    
Events Fog    
Averages and records for this station are not official NWS values.
T = Trace of Precipitation, MM = Missing Value Source: NWS Daily Summary

Daily Weather History Graph

Daily Weather History Graph

Search for Another Location

Airport or City:

Trip Planner

Search our weather history database for the weather conditions in past years. The results will help you decide how hot, cold, wet, or windy it might be!

Date:

Astronomy

Sep. 04, 2012 Rise Set
Actual Time 6:23 AM CDT 7:15 PM CDT
Civil Twilight 5:56 AM CDT 7:42 PM CDT
Nautical Twilight 5:24 AM CDT 8:14 PM CDT
Astronomical Twilight 4:50 AM CDT 8:47 PM CDT
Moon 9:12 PM CDT (9/4) 10:25 AM CDT (9/4)
Length of Visible Light 13h 46m
Length of Day
12h 52m
Waning Gibbous, 83% of the Moon is Illuminated
Sep 4
Waning Gibbous
Sep 8
Last Quarter
Sep 15
New
Sep 22
First Quarter
Sep 29
Full

Hourly Weather History & Observations

Time (CDT) Temp. Heat Index Dew Point Humidity Pressure Visibility Wind Dir Wind Speed Gust Speed Precip Events Conditions
12:15 AM 71.6 °F - 71.6 °F 100% 29.87 in 0.2 mi Calm Calm - N/A Fog Fog
12:35 AM 71.6 °F - 69.8 °F 94% 29.87 in 0.5 mi Calm Calm - N/A Fog Fog
12:55 AM 71.6 °F - 69.8 °F 94% 29.87 in 0.2 mi Calm Calm - N/A Fog Fog
1:15 AM 69.8 °F - 68.0 °F 94% 29.87 in 0.2 mi Calm Calm - N/A Fog Fog
1:35 AM 69.8 °F - 68.0 °F 94% 29.87 in 0.2 mi West 3.5 mph - N/A Fog Fog
1:55 AM 69.8 °F - 69.8 °F 100% 29.87 in 0.8 mi Calm Calm - N/A   Mist
2:15 AM 69.8 °F - 69.8 °F 100% 29.87 in 0.2 mi Calm Calm - N/A Fog Fog
2:35 AM 69.8 °F - 68.0 °F 94% 29.87 in 0.2 mi Calm Calm - N/A Fog Fog
2:55 AM 69.8 °F - 68.0 °F 94% 29.87 in 0.2 mi Calm Calm - N/A Fog Fog
3:15 AM 69.8 °F - 68.0 °F 94% 29.87 in 0.2 mi Calm Calm - N/A Fog Fog
3:35 AM 69.8 °F - 68.0 °F 94% 29.87 in 0.2 mi WNW 3.5 mph - N/A Fog Fog
3:55 AM 69.8 °F - 68.0 °F 94% 29.87 in 0.5 mi West 3.5 mph - N/A Fog Fog
4:15 AM 69.8 °F - 68.0 °F 94% 29.87 in 0.8 mi NW 3.5 mph - N/A   Mist
4:55 AM 69.8 °F - 69.8 °F 100% 29.87 in 2.5 mi NW 4.6 mph - N/A   Clear
5:15 AM 69.8 °F - 69.8 °F 100% 29.86 in 1.8 mi Calm Calm - N/A   Mist
5:35 AM 69.8 °F - 68.0 °F 94% 29.86 in 0.8 mi Calm Calm - N/A   Mist
5:55 AM 69.8 °F - 69.8 °F 100% 29.87 in 0.2 mi Calm Calm - N/A Fog Fog
6:15 AM 69.8 °F - 69.8 °F 100% 29.87 in 1.8 mi Calm Calm - N/A   Overcast
6:35 AM 71.6 °F - 69.8 °F 94% 29.89 in 1.5 mi Calm Calm - N/A   Overcast
6:55 AM 71.6 °F - 71.6 °F 100% 29.88 in 1.5 mi Calm Calm - N/A   Overcast
7:15 AM 71.6 °F - 69.8 °F 94% 29.88 in 1.5 mi Calm Calm - N/A   Mostly Cloudy
7:35 AM 71.6 °F - 71.6 °F 100% 29.89 in 2.5 mi Calm Calm - N/A   Scattered Clouds
7:55 AM 73.4 °F - 71.6 °F 94% 29.90 in 2.5 mi Calm Calm - N/A   Scattered Clouds
8:15 AM 73.4 °F - 73.4 °F 100% 29.91 in 4.0 mi Calm Calm - N/A   Mostly Cloudy
8:35 AM 75.2 °F - 73.4 °F 94% 29.91 in 7.0 mi NNW 4.6 mph - N/A   Mostly Cloudy
8:55 AM 77.0 °F - 75.2 °F 94% 29.90 in 10.0 mi NNW 3.5 mph - N/A   Scattered Clouds
9:15 AM 78.8 °F - 77.0 °F 94% 29.91 in 10.0 mi NW 4.6 mph - N/A   Clear
9:35 AM 80.6 °F 85.4 °F 73.4 °F 79% 29.92 in 10.0 mi NW 5.8 mph - N/A   Clear
9:55 AM 82.4 °F 88.2 °F 73.4 °F 74% 29.92 in 10.0 mi NW 6.9 mph - N/A   Clear
10:15 AM 82.4 °F 87.2 °F 71.6 °F 70% 29.92 in 10.0 mi NNW 5.8 mph - N/A   Clear
10:35 AM 84.2 °F 90.9 °F 73.4 °F 70% 29.92 in 10.0 mi NNW 5.8 mph - N/A   Clear
10:55 AM 86.0 °F 93.4 °F 73.4 °F 66% 29.91 in 10.0 mi NW 8.1 mph - N/A   Clear
11:15 AM 86.0 °F 93.4 °F 73.4 °F 66% 29.92 in 10.0 mi NNW 5.8 mph - N/A   Clear
11:35 AM 86.0 °F 91.8 °F 71.6 °F 62% 29.91 in 10.0 mi NNW 4.6 mph - N/A   Scattered Clouds
11:55 AM 87.8 °F 93.8 °F 71.6 °F 58% 29.90 in 10.0 mi NNE 3.5 mph - N/A   Scattered Clouds
12:15 PM 87.8 °F 93.8 °F 71.6 °F 58% 29.90 in 10.0 mi NNE 5.8 mph - N/A   Scattered Clouds
12:35 PM 87.8 °F 93.8 °F 71.6 °F 58% 29.89 in 10.0 mi NNW 5.8 mph - N/A   Scattered Clouds
12:55 PM 87.8 °F 93.8 °F 71.6 °F 58% 29.89 in 10.0 mi NE 6.9 mph - N/A   Scattered Clouds
1:15 PM 89.6 °F 96.2 °F 71.6 °F 55% 29.88 in 10.0 mi Calm Calm - N/A   Scattered Clouds
1:35 PM 89.6 °F 94.7 °F 69.8 °F 52% 29.87 in 10.0 mi Calm Calm - N/A   Scattered Clouds
1:55 PM 89.6 °F 96.2 °F 71.6 °F 55% 29.87 in 10.0 mi ENE 4.6 mph - N/A   Scattered Clouds
2:15 PM 89.6 °F 94.7 °F 69.8 °F 52% 29.86 in 10.0 mi NE 3.5 mph - N/A   Scattered Clouds
2:35 PM 91.4 °F 98.4 °F 71.6 °F 52% 29.85 in 10.0 mi NNW 4.6 mph - N/A   Scattered Clouds
2:55 PM 89.6 °F 94.7 °F 69.8 °F 52% 29.85 in 7.0 mi NE 3.5 mph - N/A   Scattered Clouds
3:15 PM 89.6 °F 94.7 °F 69.8 °F 52% 29.85 in 10.0 mi Calm Calm - N/A   Scattered Clouds
3:35 PM 89.6 °F 93.4 °F 68.0 °F 49% 29.85 in 7.0 mi Calm Calm - N/A   Scattered Clouds
3:55 PM 89.6 °F 94.7 °F 69.8 °F 52% 29.85 in 10.0 mi WNW 3.5 mph - N/A   Scattered Clouds
4:15 PM 89.6 °F 96.2 °F 71.6 °F 55% 29.84 in 10.0 mi Calm Calm - N/A   Mostly Cloudy
4:35 PM 91.4 °F 96.8 °F 69.8 °F 49% 29.84 in 5.0 mi South 3.5 mph - N/A   Haze
5:15 PM 91.4 °F 95.4 °F 68.0 °F 46% 29.84 in 4.0 mi Calm Calm - N/A   Haze
5:35 PM 89.6 °F 94.7 °F 69.8 °F 52% 29.85 in 10.0 mi Calm Calm - N/A   Clear
5:55 PM 89.6 °F 98.2 °F 73.4 °F 59% 29.85 in 10.0 mi Calm Calm - N/A   Clear
6:15 PM 89.6 °F 96.2 °F 71.6 °F 55% 29.85 in 10.0 mi WSW 4.6 mph - N/A   Clear
6:35 PM 87.8 °F 93.8 °F 71.6 °F 58% 29.85 in 10.0 mi WSW 3.5 mph - N/A   Clear
6:55 PM 87.8 °F 92.6 °F 69.8 °F 55% 29.84 in 10.0 mi Calm Calm - N/A   Clear
7:15 PM 86.0 °F 93.4 °F 73.4 °F 66% 29.84 in 10.0 mi Calm Calm - N/A   Clear
7:35 PM 82.4 °F 88.2 °F 73.4 °F 74% 29.85 in 10.0 mi Calm Calm - N/A   Clear
7:55 PM 78.8 °F - 73.4 °F 83% 29.85 in 10.0 mi Calm Calm - N/A   Clear
8:15 PM 80.6 °F 85.4 °F 73.4 °F 79% 29.86 in 10.0 mi Calm Calm - N/A   Clear
8:35 PM 78.8 °F - 73.4 °F 83% 29.86 in 10.0 mi Calm Calm - N/A   Clear
8:55 PM 78.8 °F - 73.4 °F 83% 29.86 in 10.0 mi Calm Calm - N/A   Clear
9:15 PM 77.0 °F - 73.4 °F 89% 29.86 in 10.0 mi Calm Calm - N/A   Clear
9:35 PM 77.0 °F - 73.4 °F 89% 29.86 in 10.0 mi Calm Calm - N/A   Clear
9:55 PM 77.0 °F - 73.4 °F 89% 29.86 in 10.0 mi Calm Calm - N/A   Clear
10:15 PM 77.0 °F - 73.4 °F 89% 29.86 in 10.0 mi Calm Calm - N/A   Clear
10:35 PM 77.0 °F - 73.4 °F 89% 29.86 in 10.0 mi Calm Calm - N/A   Clear
10:55 PM 75.2 °F - 71.6 °F 89% 29.86 in 10.0 mi Calm Calm - N/A   Clear
11:15 PM 75.2 °F - 71.6 °F 89% 29.86 in 10.0 mi Calm Calm - N/A   Clear
11:35 PM 75.2 °F - 71.6 °F 89% 29.86 in 10.0 mi Calm Calm - N/A   Clear
11:55 PM 73.4 °F - 71.6 °F 94% 29.86 in 5.0 mi Calm Calm - N/A   Clear